User: anonymous   Login
Location: Unspecified
(0.0000°N, 0.0000°E)
Time: 20:30:10
(UTC+00:00)
Language:

CINEMA 3 - Orbit

View from above orbital plane
View from above orbital plane
View from above satellite
View from above satellite

Ground track
Ground track

The orbit data is extracted from the following two-line orbital elements,

1 39427U 13066M   18174.77706664  .00000199  00000-0  40045-4 0  9991
2 39427  97.6414 170.2679 0112691 237.8595 121.1637 14.67676862245543
Epoch (UTC): 23 June 2018 18:38:58
Eccentricity: 0.0112691
inclination: 97.6414°
perigee height: 589 km
apogee height: 748 km
right ascension of ascending node: 170.2679°
argument of perigee: 237.8595°
revolutions per day: 14.67676862
mean anomaly at epoch: 121.1637°
orbit number at epoch: 24554

The dashed part of the orbit path shows where the satellite is in the earth's shadow,  

DLR